sat.trackr.live / text

‹ back to catalog

STARLINK-36252

NORAD 68533 · 2026-068AB

PAYLOAD ACTIVE UNKNOWN

§ Identity

Operator
Country
US
Launch date
2026-03-30
Launch site
AFETR
Launch vehicle
Mass (kg)
RCS (m²)

Purposes: comms

External: N2YO · Heavens-Above · Gunter

§ Orbital elements

Epoch: 2026-09-19T19:54:43.632288Z

Period
93.85 min
Inclination
53.1601°
Eccentricity
0.0001096
Mean motion
15.34387049 rev/d
Perigee alt
462.0 km
Apogee alt
463.5 km
Semi-major
6,840.9 km
B*
5.3818e-4
RAAN
302.8886°
Arg perigee
85.8502°
Mean anomaly
274.2626°
Rev number
2,673

§ Raw data

STARLINK-362521 68533U 26068AB  26262.82967167  .00017843  00000+0  53818-3 0  99912 68533  53.1601 302.8886 0001096  85.8502 274.2626 15.34387049 26733

JSON: /api/v1/satellites/68533 · /tle

For live sub-satellite position, see the globe view (requires WebGL).

§ Visibility from observer

Set your observer location to see the next 7 days of passes ≥ 10°. The values pass through the URL so the page stays shareable.

No JS? Fill the form by hand. The geolocation button needs JavaScript.